Ithaca, NY

2:38 AM EDT on October 17, 2017 (GMT -0400)
Tompkins County

Weather History for KITH - June, 2013

Change the Weather History Date:

Thursday, June 27, 2013

  Actual Average Record
Temperature  
Mean Temperature 70 °F -  
Max Temperature 81 °F 75 °F 96 °F (1952)
Min Temperature 61 °F 55 °F 40 °F (1927)
Cooling Degree Days 5    
Growing Degree Days 20 (Base 50)    
Moisture  
Dew Point 65 °F    
Average Humidity 86    
Maximum Humidity 100    
Minimum Humidity 62    
Precipitation  
Precipitation 0.68 in - - ()
Sea Level Pressure  
Sea Level Pressure 29.76 in    
Wind  
Wind Speed 3 mph (East)    
Max Wind Speed 9 mph    
Max Gust Speed -    
Visibility 8 miles    
Events Fog , Rain    
Averages and records for this station are not official NWS values.
T = Trace of Precipitation, MM = Missing Value Source: NWS Daily Summary

Daily Weather History Graph

Daily Weather History Graph

Search for Another Location

Airport or City:

Trip Planner

Search our weather history database for the weather conditions in past years. The results will help you decide how hot, cold, wet, or windy it might be!

Date:

Astronomy

Jun. 27, 2013 Rise Set
Actual Time 5:30 AM EDT 8:47 PM EDT
Civil Twilight 4:55 AM EDT 9:22 PM EDT
Nautical Twilight 4:10 AM EDT 10:07 PM EDT
Astronomical Twilight 3:15 AM EDT 11:01 PM EDT
Moon 11:35 PM EDT (6/27) 10:35 AM EDT (6/27)
Length of Visible Light 16h 26m
Length of Day
15h 16m
Waning Gibbous, 76% of the Moon is Illuminated
Jun 27
Waning Gibbous
Jun 30
Last Quarter
Jul 8
New
Jul 15
First Quarter
Jul 22
Full

Hourly Weather History & Observations

Time (EDT) Temp. Dew Point Humidity Pressure Visibility Wind Dir Wind Speed Gust Speed Precip Events Conditions
12:56 AM 63.9 °F 63.0 °F 97% 29.84 in 5.0 mi Calm Calm - N/A   Clear
1:56 AM 63.9 °F 63.0 °F 97% 29.83 in 7.0 mi ENE 3.5 mph - N/A   Clear
2:56 AM 63.9 °F 61.9 °F 93% 29.83 in 6.0 mi East 5.8 mph - N/A   Clear
3:56 AM 63.0 °F 61.9 °F 96% 29.81 in 5.0 mi East 4.6 mph - N/A   Clear
4:56 AM 63.0 °F 61.9 °F 96% 29.81 in 4.0 mi East 5.8 mph - N/A   Clear
5:56 AM 61.9 °F 61.9 °F 100% 29.81 in 3.0 mi East 5.8 mph - N/A   Clear
6:30 AM 62.6 °F 62.6 °F 100% 29.84 in 8.0 mi Calm Calm - N/A Fog Clear
6:56 AM 63.9 °F 61.9 °F 93% 29.83 in 8.0 mi Calm Calm - N/A Fog Clear
7:56 AM 68.0 °F 64.9 °F 90% 29.82 in 9.0 mi Calm Calm - N/A Fog Clear
8:56 AM 72.0 °F 65.8 °F 81% 29.80 in 10.0 mi Calm Calm - N/A   Clear
9:56 AM 77.0 °F 66.9 °F 71% 29.79 in 10.0 mi Calm Calm - N/A   Clear
10:56 AM 77.9 °F 65.8 °F 66% 29.79 in 10.0 mi South 5.8 mph - N/A   Mostly Cloudy
11:56 AM 79.9 °F 65.8 °F 62% 29.77 in 10.0 mi SSE 6.9 mph - N/A   Scattered Clouds
12:56 PM 79.0 °F 64.9 °F 62% 29.76 in 10.0 mi SSE 8.1 mph - N/A   Scattered Clouds
1:56 PM 79.0 °F 66.9 °F 66% 29.75 in 10.0 mi ESE 3.5 mph - N/A   Scattered Clouds
2:56 PM 79.0 °F 66.9 °F 66% 29.73 in 10.0 mi Calm Calm - N/A   Partly Cloudy
3:56 PM 77.9 °F 68.9 °F 74% 29.73 in 10.0 mi Calm Calm - N/A   Mostly Cloudy
4:56 PM 75.9 °F 70.0 °F 82% 29.71 in 10.0 mi West 3.5 mph - 0.00 in Rain Light Rain Showers
5:56 PM 72.0 °F 68.9 °F 90% 29.71 in 7.0 mi West 4.6 mph - 0.00 in Rain Light Rain Showers
6:56 PM 68.9 °F 65.8 °F 90% 29.70 in 5.0 mi North 4.6 mph - 0.46 in Rain Rain
7:56 PM 68.0 °F 66.9 °F 96% 29.68 in 6.0 mi Calm Calm - 0.01 in Rain Light Rain
8:56 PM 68.0 °F 66.9 °F 96% 29.68 in 3.0 mi East 3.5 mph - 0.07 in Rain Light Rain
9:56 PM 66.9 °F 64.9 °F 93% 29.66 in 8.0 mi ENE 9.2 mph - 0.11 in Rain Rain
10:56 PM 64.4 °F 64.4 °F 100% 29.65 in 5.0 mi ENE 6.9 mph - N/A Rain Rain
11:56 PM 63.9 °F 63.0 °F 97% 29.61 in 9.0 mi NE 4.6 mph - 0.03 in Rain Light Rain